CW0009 Weather Reports


time (UTC)temp
C
wind
direction
speed
KPH
gust
KPH
rain 1hr
cm
rain 24hr
cm
rain mn
cm
humidity
%
barometer
mb
20180921170038 18 240 24.1 33.8 0.00 0.48 0.48 26 1012.0
20180921165017 18 235 27.4 27.4 0.00 0.48 0.48 26 1012.0
20180921164018 18 235 29.0 35.4 0.00 0.48 0.48 26 1012.0
20180921163018 18 225 24.1 27.4 0.00 0.48 0.48 26 1012.0
20180921162017 18 205 22.5 29.0 0.00 0.48 0.48 26 1012.0
20180921161018 18 220 22.5 29.0 0.00 0.48 0.48 26 1011.0
20180921160038 20 210 22.5 24.1 0.00 0.48 0.48 26 1011.0
20180921155018 22 230 22.5 27.4 0.00 0.48 0.48 26 1011.0
20180921154039 20 230 20.9 20.9 0.00 0.48 0.48 26 1012.0
20180921153019 20 225 22.5 24.1 0.00 0.48 0.48 26 1012.0
20180921152018 20 220 24.1 29.0 0.00 0.48 0.48 26 1011.0
20180921151018 20 215 24.1 29.0 0.00 0.48 0.48 26 1011.0
20180921150016 20 195 24.1 27.4 0.00 0.48 0.48 26 1011.0
20180921145017 19 230 29.0 27.4 0.00 0.48 0.48 26 1011.0
20180921144018 19 230 29.0 32.2 0.00 0.48 0.48 26 1011.0
20180921143018 19 215 29.0 25.7 0.00 0.48 0.48 26 1011.0
20180921142018 19 220 27.4 33.8 0.00 0.46 0.46 26 1011.0
20180921141016 19 235 24.1 27.4 0.00 0.46 0.46 26 1011.0
20180921140015 19 205 25.7 29.0 0.00 0.46 0.46 26 1011.0
20180921134014 19 220 20.9 32.2 0.00 0.46 0.46 26 1011.0
20180921133015 18 255 22.5 22.5 0.00 0.46 0.46 26 1011.0
20180921132035 18 210 22.5 29.0 0.00 0.46 0.46 26 1011.0
20180921131015 18 200 25.7 29.0 0.00 0.46 0.46 26 1010.0
20180921130013 18 225 27.4 37.0 0.00 0.46 0.46 26 1010.0
20180921125036 18 225 29.0 27.4 0.00 0.46 0.46 26 1010.0
20180921124014 18 255 29.0 37.0 0.00 0.46 0.46 26 1010.0
20180921123015 18 205 27.4 32.2 0.00 0.46 0.46 26 1010.0
20180921122036 18 220 27.4 33.8 0.00 0.46 0.46 26 1009.0
20180921121014 18 215 24.1 27.4 0.00 0.46 0.46 26 1009.0
20180921120013 18 210 22.5 24.1 0.00 0.46 0.46 26 1009.0
20180921115014 19 205 22.5 24.1 0.00 0.46 0.46 26 1009.0
20180921114015 17 230 22.5 27.4 0.00 0.46 0.46 26 1009.0
20180921113015 17 215 20.9 27.4 0.00 0.46 0.46 26 1009.0
20180921112014 17 245 24.1 29.0 0.00 0.46 0.46 26 1009.0
20180921111016 17 245 24.1 25.7 0.00 0.46 0.46 26 1009.0
20180921110014 17 250 24.1 27.4 0.00 0.46 0.46 26 1008.0
20180921105035 17 255 25.7 33.8 0.00 0.46 0.46 26 1008.0
20180921104014 17 260 24.1 27.4 0.00 0.46 0.46 26 1008.0
20180921103036 17 285 24.1 25.7 0.00 0.46 0.46 26 1008.0
20180921102047 17 270 24.1 29.0 0.00 0.46 0.46 26 1007.0
20180921100013 17 230 22.5 29.0 0.00 0.46 0.46 26 1007.0
20180921095015 17 250 20.9 25.7 0.00 0.46 0.46 26 1007.0
20180921094015 17 225 20.9 29.0 0.00 0.46 0.46 26 1007.0
20180921092039 17 260 19.3 19.3 0.00 0.46 0.46 26 1006.0
20180921091036 17 245 19.3 20.9 0.00 0.46 0.46 26 1006.0
20180921090014 17 250 19.3 22.5 0.00 0.46 0.46 26 1006.0
20180921085014 17 240 19.3 20.9 0.00 0.46 0.46 26 1006.0
20180921084015 17 215 14.5 20.9 0.00 0.46 0.46 26 1006.0
20180921083015 17 230 12.9 16.1 0.00 0.46 0.46 26 1005.0
20180921082014 17 220 14.5 14.5 0.00 0.46 0.46 26 1005.0
20180921081014 17 200 16.1 20.9 0.00 0.46 0.46 26 1005.0
20180921080012 17 230 16.1 19.3 0.00 0.46 0.46 26 1005.0
20180921075014 17 205 16.1 20.9 0.00 0.46 0.46 26 1005.0
20180921074015 17 220 14.5 20.9 0.03 0.46 0.46 26 1004.0
20180921073015 17 195 14.5 14.5 0.08 0.46 0.46 26 1004.0
20180921072015 17 220 19.3 22.5 0.15 0.46 0.46 26 1004.0
20180921065014 17 220 25.7 25.7 0.28 0.46 0.46 26 1004.0
20180921063015 18 240 27.4 45.1 0.23 0.36 0.36 26 1003.0
20180921062014 18 175 24.1 27.4 0.18 0.33 0.33 26 1003.0
20180921061036 19 185 24.1 27.4 0.18 0.23 0.25 26 1003.0
20180921060034 19 200 24.1 25.7 0.18 0.18 0.18 26 1002.0
20180921054036 19 190 22.5 25.7 0.18 0.18 0.18 26 1002.0
20180921053036 19 175 25.7 27.4 0.15 0.15 0.15 26 1002.0
20180921052036 19 175 24.1 33.8 0.15 0.15 0.15 26 1002.0
20180921051016 20 180 24.1 25.7 0.08 0.03 0.08 26 1002.0
20180921050034 20 160 25.7 29.0 0.00 0.00 0.00 26 1002.0
20180921045014 20 175 27.4 32.2 0.00 0.00 0.00 26 1002.0
20180921044037 20 175 29.0 32.2 0.00 0.00 0.00 26 1002.0
20180921043015 20 165 27.4 33.8 0.00 0.00 0.00 26 1002.0
20180921042015 20 165 27.4 32.2 0.00 0.00 0.00 26 1002.0
20180921041016 20 175 29.0 29.0 0.00 0.00 0.00 26 1002.0
20180921040013 20 165 29.0 32.2 0.00 0.00 0.00 26 1002.0
20180921035015 20 160 27.4 32.2 0.00 0.00 0.00 26 1002.0
20180921034015 20 165 22.5 33.8 0.00 0.00 0.00 26 1002.0
20180921033015 20 165 20.9 25.7 0.00 0.00 0.00 26 1002.0
20180921032015 20 175 22.5 22.5 0.00 0.00 0.00 26 1003.0
20180921031036 20 165 24.1 32.2 0.00 0.00 0.00 26 1003.0
20180921030013 21 155 22.5 25.7 0.00 0.00 0.00 26 1003.0
20180921025014 21 175 24.1 25.7 0.00 0.00 0.00 26 1003.0
20180921024036 21 160 22.5 29.0 0.00 0.00 0.00 26 1003.0
20180921023015 21 155 20.9 25.7 0.00 0.00 0.00 26 1004.0
20180921021037 21 160 19.3 20.9 0.00 0.00 0.00 26 1004.0
20180921020012 21 165 19.3 20.9 0.00 0.00 0.00 26 1004.0
20180921015015 21 160 19.3 20.9 0.00 0.00 0.00 26 1004.0
20180921014014 21 170 20.9 24.1 0.00 0.00 0.00 26 1005.0
20180921013015 21 175 20.9 22.5 0.00 0.00 0.00 26 1005.0
20180921012015 21 165 19.3 22.5 0.00 0.00 0.00 26 1005.0
20180921010013 21 165 20.9 24.1 0.00 0.00 0.00 26 1005.0
20180921005036 21 160 19.3 22.5 0.00 0.00 0.00 26 1005.0
20180921004015 21 155 16.1 22.5 0.00 0.00 0.00 26 1005.0
20180921003015 21 155 16.1 16.1 0.00 0.00 0.00 26 1006.0
20180921002014 21 175 19.3 20.9 0.00 0.00 0.00 26 1006.0
20180921000014 22 165 19.3 22.5 0.00 0.00 0.00 26 1006.0
20180920235015 21 160 16.1 25.7 0.00 0.00 0.00 26 1006.0
20180920234015 22 160 19.3 16.1 0.00 0.00 0.00 26 1006.0
20180920233015 22 160 19.3 24.1 0.00 0.00 0.00 26 1006.0
20180920232015 22 165 16.1 22.5 0.00 0.00 0.00 26 1007.0
20180920230013 22 170 16.1 19.3 0.00 0.00 0.00 26 1007.0
20180920225015 22 175 16.1 19.3 0.00 0.00 0.00 26 1007.0
20180920224036 22 165 16.1 20.9 0.00 0.00 0.00 26 1007.0
20180920223015 22 155 19.3 19.3 0.00 0.00 0.00 26 1007.0
20180920222015 22 170 16.1 20.9 0.00 0.00 0.00 26 1008.0
20180920221037 22 155 19.3 19.3 0.00 0.00 0.00 26 1008.0
20180920220014 22 130 16.1 22.5 0.00 0.00 0.00 26 1008.0
20180920215035 22 160 16.1 20.9 0.00 0.00 0.00 26 1008.0
20180920214015 22 160 14.5 19.3 0.00 0.00 0.00 26 1008.0
20180920213015 22 150 12.9 19.3 0.00 0.00 0.00 26 1008.0
20180920212017 22 160 11.3 12.9 0.00 0.00 0.00 26 1008.0
20180920210013 22 160 12.9 14.5 0.00 0.00 0.00 26 1009.0
20180920205017 22 135 14.5 14.5 0.00 0.00 0.00 26 1009.0
20180920204014 22 155 16.1 24.1 0.00 0.00 0.00 26 1009.0
20180920203015 22 155 14.5 22.5 0.00 0.00 0.00 26 1009.0
20180920201023 22 165 11.3 12.9 0.00 0.00 0.00 26 1009.0
20180920200013 22 160 11.3 12.9 0.00 0.00 0.00 26 1009.0
20180920195015 22 155 12.9 12.9 0.00 0.00 0.00 26 1010.0
20180920194015 22 165 12.9 14.5 0.00 0.00 0.00 26 1010.0
20180920193015 22 165 11.3 14.5 0.00 0.00 0.00 26 1010.0
20180920192014 22 135 8.0 11.3 0.00 0.00 0.00 26 1010.0
20180920191016 22 145 6.4 8.0 0.00 0.00 0.00 26 1010.0
20180920190013 23 145 3.2 8.0 0.00 0.00 0.00 26 1010.0
20180920184015 23 155 4.8 4.8 0.00 0.00 0.00 26 1010.0
20180920182015 23 130 3.2 11.3 0.00 0.00 0.00 26 1011.0
20180920181039 23 120 3.2 4.8 0.00 0.00 0.00 26 1011.0
20180920180014 23 120 3.2 8.0 0.00 0.00 0.00 26 1011.0
20180920175036 24 120 1.6 4.8 0.00 0.00 0.00 26 1011.0
20180920174015 24 120 4.8 4.8 0.00 0.00 0.00 26 1011.0
20180920173016 24 120 9.7 8.0 0.00 0.00 0.00 26 1011.0
20180920172036 24 120 11.3 14.5 0.00 0.00 0.00 26 1011.0